This is the latest recevied weather packets stored in our database for station/object IW1CBG-3. If no packets are shown the sender has not sent any weather packets the latest 10 day(s).
| Time | Temp. | Humidity | Pressure | Rain* | Wind** | Luminosity | Snow |
|---|---|---|---|---|---|---|---|
| 1788333377 | 17.78° C | 81% | 1031.2 hPa | 0 mm | - | - | - |
| 1788332778 | 17.22° C | 84% | 1031.3 hPa | 0 mm | - | - | - |
| 1788332178 | 16.67° C | 86% | 1031.3 hPa | 0 mm | - | - | - |
| 1788331577 | 16.11° C | 88% | 1031.8 hPa | 0 mm | - | - | - |
| 1788330977 | 15.56° C | 89% | 1031.8 hPa | 0 mm | - | - | - |
| 1788330377 | 15.56° C | 89% | 1031.7 hPa | 0 mm | - | - | - |
| 1788329777 | 15° C | 91% | 1032.1 hPa | 0 mm | - | - | - |
| 1788329177 | 14.44° C | 93% | 1032.1 hPa | 0 mm | - | - | - |
| 1788328577 | 13.89° C | 95% | 1032.3 hPa | 0 mm | - | - | - |
| 1788327977 | 13.89° C | 96% | 1032.3 hPa | 0 mm | - | - | - |
| 1788327377 | 13.89° C | 96% | 1032.4 hPa | 0 mm | - | - | - |
| 1788326778 | 13.89° C | 96% | 1032 hPa | 0 mm | - | - | - |
| 1788326177 | 13.89° C | 96% | 1032.2 hPa | 0 mm | - | - | - |
| 1788325577 | 13.89° C | 96% | 1031.8 hPa | 0 mm | - | - | - |
| 1788324977 | 13.89° C | 96% | 1032.3 hPa | 0 mm | - | - | - |
| 1788324378 | 14.44° C | 95% | 1031.8 hPa | 0 mm | - | - | - |
| 1788323777 | 14.44° C | 96% | 1031.7 hPa | 0 mm | - | - | - |
| 1788323177 | 14.44° C | 97% | 1031.7 hPa | 0 mm | - | - | - |
| 1788322577 | 13.89° C | 97% | 1032 hPa | 0 mm | - | - | - |
| 1788321980 | 13.89° C | 97% | 1031.8 hPa | 0 mm | - | - | - |
| 1788321377 | 13.89° C | 97% | 1032.2 hPa | 0 mm | - | - | - |
| 1788320778 | 13.89° C | 97% | 1032 hPa | 0 mm | - | - | - |
| 1788320177 | 14.44° C | 97% | 1031.7 hPa | 0 mm | - | - | - |
| 1788319578 | 14.44° C | 97% | 1031.7 hPa | 0 mm | - | - | - |
| 1788318977 | 14.44° C | 97% | 1031.7 hPa | 0 mm | - | - | - |
* Rain latest hour (hover to see other rain measurements)
** Current wind speed in m/s (hover to see current wind gust speed)